Location: Berua Church
(35.0423°N, 88.5987°W)
Time: 16:01:33
(UTC+00:00)

IRS-1C Rocket - Pass Details

Date: 08 December 2019
Orbit: 800 x 806 km, 99.0° (Epoch: 28 January)

Event Time Altitude Azimuth Distance (km) Brightness Sun altitude
Rises 12:19:53 0° 11° (N) 3,317 7.2 -6.4°
Reaches altitude 10° 12:22:13 10° 9° (N) 2,382 6.4 -5.9°
Maximum altitude 12:27:28 74° 286° (WNW) 835 4.1 -5.0°
Drops below altitude 10° 12:32:41 10° 202° (SSW) 2,366 6.6 -4.0°
Sets 12:35:00 0° 200° (SSW) 3,292 7.4 -3.6°
